Tracking 30995 objects as of 5-Jul-2025
HD Live streaming from Space Station
objects crossing your sky now

COSMOS 2251 DEB

Track COSMOS 2251 DEB now!
10-day predictions


NORAD ID: 40796
Int'l Code: 1993-036BVZ
Perigee: 597.3 km
Apogee: 681.7 km
Inclination: 74.0 °
Period: 97.4 minutes
Semi major axis: 7010 km
RCS: Unknown
Launch date: June 16, 1993
Source: Commonwealth of Independent States (former USSR) (CIS)
Launch site: PLESETSK MISSILE AND SPACE COMPLEX (PKMTR)

Note: This is SATELLITE DEBRIS
Your satellite tracking list
Your tracking list is empty




NASA's NSSDC Master Catalog

Two Line Element Set (TLE):
1 40796U 93036BVZ 25182.05866772  .00003405  00000-0  45120-3 0  9993
2 40796  74.0150 107.1076 0060206 283.6383  91.1969 14.79041358737200
Source of the keplerian elements: AFSPC